Home   Weather   Nordhausen   Past weeks

Flag for Germany Past Weather in Nordhausen, Thuringia, Germany — Yesterday and Last 2 Weeks

Now
21 °F

Passing clouds.


Feels Like: 15 °F
Forecast: 10 / 28 °F
Wind: 5 mph from Southeast

Location: Erfurt-Bindersleben

Current Time: Jan 18, 2017 at 7:22:34 pm

Latest Report: Jan 18, 2017 at 6:50 pm


Visibility: N/A

Pressure: 30.66 "Hg

Humidity: 86%

Dew Point: 18 °F

Location of NordhausenLocation

Past Weather in Nordhausen — Graph

°F

Nordhausen Temperature Yesterday

Maximum temperature yesterday: 30 °F (at 10:50 am)
Minimum temperature yesterday: 23 °F (at 4:50 pm)
Average temperature yesterday: 25 °F

High & Low Weather Summary for the Past Weeks

 TemperatureHumidityPressure
High39 °F (Jan 12, 11:20 am)100% (Jan 4, 8:20 am)30.72 "Hg (Jan 4, 8:20 am)
Low7 °F (Jan 6, 2:50 am)54% (Jan 7, 12:20 pm)29.00 "Hg (Jan 13, 3:50 am)
Average28 °F85%30.08 "Hg
* Reported Jan 3 5:20 pm — Jan 18 5:50 pm, Nordhausen, Weather by CustomWeather, © 2017

Note: Actual official high and low records may vary slightly from our data, if they occured in-between our weather recording intervals... More about our weather records

Advertising

Nordhausen Weather History for the Previous 24 Hours

Scroll right to see more
 ConditionsComfort  
Time TempWeatherWind HumidityBarometerVisibility
5:50 pm
Wed, Jan 18
19 °FPartly cloudy.6 mph93%30.66 "HgN/A
5:20 pm21 °FPartly cloudy.6 mph86%30.66 "HgN/A
4:50 pm23 °FPartly cloudy.7 mph86%30.66 "HgN/A
4:20 pm23 °FBroken clouds.8 mph86%30.66 "HgN/A
3:50 pm23 °FPartly sunny.8 mph86%30.66 "HgN/A
3:20 pm25 °FPartly sunny.6 mph80%30.66 "HgN/A
2:50 pm25 °FPartly sunny.7 mph80%30.66 "HgN/A
2:20 pm25 °FPartly sunny.8 mph80%30.66 "HgN/A
1:50 pm25 °FPartly sunny.8 mph80%30.66 "HgN/A
1:20 pm25 °FPartly sunny.7 mph80%30.66 "HgN/A
12:50 pm25 °FPartly sunny.7 mph80%30.66 "HgN/A
12:20 pm25 °FPartly sunny.8 mph80%30.66 "HgN/A
11:50 am23 °FPartly sunny.8 mph86%30.66 "HgN/A
11:20 am23 °FPartly sunny.8 mph86%30.69 "HgN/A
10:50 am23 °FPartly sunny.9 mph86%30.69 "HgN/A
10:20 am23 °FPartly sunny.9 mph80%30.69 "HgN/A
9:50 am23 °FPartly sunny.7 mph86%30.66 "HgN/A
9:20 am23 °FPartly sunny.8 mph86%30.66 "HgN/A
8:50 am23 °FPartly sunny.7 mph86%30.66 "HgN/A
8:20 am21 °FPartly sunny.7 mph93%30.66 "HgN/A
7:50 am21 °FPartly cloudy.6 mph100%30.66 "Hg4 mi
7:20 am21 °FPartly cloudy.5 mph93%30.66 "Hg4 mi
6:50 am21 °FClear.3 mph93%30.63 "Hg6 mi
6:20 am21 °FPassing clouds.2 mph93%30.63 "HgN/A
5:50 am21 °FPassing clouds.3 mph93%30.63 "HgN/A
5:20 am21 °FPassing clouds.2 mph100%30.63 "HgN/A
4:50 am23 °FPassing clouds.3 mph93%30.63 "HgN/A
4:20 am23 °FPassing clouds.6 mph93%30.66 "HgN/A
3:50 am23 °FPassing clouds.5 mph93%30.66 "HgN/A
3:20 am23 °FLight snow. Passing clouds.5 mph93%30.66 "Hg5 mi
2:50 am23 °FPartly cloudy.3 mph93%30.66 "Hg6 mi
2:20 am23 °FLight snow. Partly cloudy.3 mph93%30.63 "Hg6 mi
1:50 am23 °FPartly cloudy.5 mph100%30.63 "Hg4 mi
1:20 am23 °FLight snow. Passing clouds.6 mph100%30.63 "Hg3 mi
12:50 am23 °FLight snow. Mostly cloudy.7 mph93%30.63 "Hg4 mi
12:20 am23 °FLight snow. Overcast.5 mph93%30.63 "Hg4 mi
11:50 pm
Tue, Jan 17
23 °FLight snow. Low clouds.5 mph93%30.63 "Hg5 mi
11:20 pm23 °FLight snow. Mostly cloudy.6 mph93%30.63 "HgN/A
10:50 pm23 °FMostly cloudy.9 mph93%30.63 "HgN/A
10:20 pm23 °FMostly cloudy.6 mph93%30.63 "HgN/A
9:50 pm23 °FMostly cloudy.7 mph93%30.63 "HgN/A
9:20 pm23 °FLow clouds.5 mph93%30.63 "HgN/A
8:50 pm23 °FLow clouds.6 mph86%30.63 "HgN/A
8:20 pm23 °FPassing clouds.6 mph93%30.63 "HgN/A
7:50 pm23 °FPassing clouds.5 mph93%30.63 "HgN/A
7:20 pm23 °FPassing clouds.6 mph93%30.60 "HgN/A
Weather by CustomWeather, © 2017

See weather overviewHow to use our weather pages